This demonstration page uses our WeatherBlox Daily Observations layout. Learn more.

Left ArrowRight Arrow

41.86663, -103.66717

Hourly Observations for September 6, 2020

Temp ( °F °C ) Dew Point ( °F °C ) Humidity (%) Winds ( mph kmh ) Pressure ( in mb ) Visibility ( mi km ) Precip ( " mm )
12:53 am 00:53 Clear 60 15.6 45 7.2 58 58 NNW 7 11 29.83 1010 10 16.0934 0 0
1:53 am 01:53 Clear 62 16.7 38 3.3 41 41 NW 12 19 29.82 1010 10 16.0934 0 0
2:53 am 02:53 Clear 61 16.1 36 2.2 39 39 NW 10 17 29.83 1010 10 16.0934 0 0
3:53 am 03:53 Clear 58 14.4 36 2.2 44 44 WNW 10 17 29.84 1011 10 16.0934 0 0
4:53 am 04:53 Clear 57 13.9 36 2.2 45 45 NNW 9 15 29.84 1011 10 16.0934 0 0
5:53 am 05:53 Clear 55 12.8 34 1.1 45 45 NNW 7 11 29.87 1012 10 16.0934 0 0
6:53 am 06:53 Sunny 56 13.3 35 1.7 46 46 NNW 7 11 29.9 1013 10 16.0934 0 0
7:53 am 07:53 Sunny 65 18.3 37 2.8 36 36 NW 12 19 29.93 1014 10 16.0934 0 0
8:53 am 08:53 Sunny 74 23.3 36 2.2 25 25 W 8 13 29.95 1014 10 16.0934 0 0
9:53 am 09:53 Sunny 81 27.2 36 2.2 20 20 W 12 19 29.95 1014 10 16.0934 0 0
10:53 am 10:53 Sunny 86 30 37 2.8 18 18 WNW 8 13 29.96 1015 10 16.0934 0 0
11:53 am 11:53 Sunny 90 32.2 37 2.8 15 15 VRB 6 9 29.95 1014 10 16.0934 0 0
12:53 pm 12:53 Sunny 91 32.8 36 2.2 14 14 VRB 5 7 29.93 1014 10 16.0934 0 0
1:53 pm 13:53 Sunny 93 33.9 37 2.8 14 14 SE 7 11 29.91 1013 10 16.0934 0 0
2:53 pm 14:53 Sunny 94 34.4 35 1.7 13 13 VRB 3 6 29.89 1012 10 16.0934 0 0
3:53 pm 15:53 Sunny 95 35 35 1.7 12 12 SE 6 9 29.87 1012 10 16.0934 0 0
4:53 pm 16:53 Sunny 93 33.9 39 3.9 15 15 E 9 15 29.87 1012 10 16.0934 0 0
5:53 pm 17:53 Sunny 91 32.8 43 6.1 19 19 E 7 11 29.87 1012 10 16.0934 0 0
6:53 pm 18:53 Sunny 81 27.2 47 8.3 30 30 E 6 9 29.88 1012 10 16.0934 0 0
7:53 pm 19:53 Clear 73 22.8 48 8.9 41 41 NNE 13 20 29.91 1013 10 16.0934 0 0
8:53 pm 20:53 Clear 77 25 40 4.4 26 26 NNE 16 26 29.93 1013 10 16.0934 0 0
9:53 pm 21:53 Clear 75 23.9 41 5 29 29 NE 17 28 29.92 1013 10 16.0934 0 0
10:53 pm 22:53 Clear 69 20.6 41 5 36 36 ESE 7 11 29.94 1014 10 16.0934 0 0
11:53 pm 23:53 Clear 65 18.3 42 5.6 43 43 ESE 6 9 29.93 1014 10 16.0934 0 0

Powered by AerisWeather